Location: Unspecified
(0.0000°N, 0.0000°E)
Time: 17:03:33
(UTC+00:00)

ATLAS 5 CENTAUR DEB - Pass Details

Date: 12 March 2026
Orbit: 8253 x 35273 km, 19.8° (Epoch: 17 April)

Event Time Altitude Azimuth Distance (km) Brightness Sun altitude
Rises 10:29:37 0° 291° (WNW) 14,100 ? 64.8°
Reaches altitude 10° 10:38:48 10° 291° (WNW) 12,456 ? 67.0°
Maximum altitude 11:25:20 88° 203° (SSW) 9,781 ? 78.4°
Enters shadow 20:55:13 45° 88° (E) 27,784 ? -41.3°
Exits shadow 22:02:09 32° 76° (ENE) 21,681 ? -58.0°
Drops below altitude 10° 22:46:29 10° 71° (ENE) 18,164 ? -69.0°
Sets 22:59:51 0° 70° (ENE) 17,547 ? -72.3°
